GFSNGP_700_temp_195.txt.gz
Temp
1 1 -0 0 0 0 -0 -1 -2 -1 -0 0 1 1 -1 -2 -2 -2 -3 -3 -3 -3 -4 -5 -5 -5 -4 -4 -4 -4 -3 -4 -4 -5 -5 -5 -4 -5 -5 -4 -3 -3 -5 -4
-2 -2 -2 -3 -2 -4 -3 -3 -2 -2 -1 1 -0 -2 -2 -3 -2 -3 -3 -4 -3 -4 -5 -6 -5 -5 -5 -4 -4 -4 -3 -4 -5 -5 -6 -5 -4 -5 -4 -4 -5 -6 -5 -4
-5 -4 -5 -5 -4 -4 -3 -2 -2 -1 -0 -2 -2 -2 -3 -3 -3 -4 -4 -3 -4 -6 -6 -6 -5 -5 -5 -4 -4 -5 -5 -5 -5 -5 -4 -4 -5 -5 -5 -5 -6 -6 -5 -6
-6 -6 -6 -4 -2 -1 -2 -2 -1 -2 -2 -2 -2 -3 -3 -4 -4 -4 -4 -5 -6 -6 -6 -6 -5 -6 -5 -6 -5 -5 -4 -5 -5 -5 -4 -5 -5 -4 -5 -6 -6 -6 -6 -7
-7 -7 -4 -3 -3 -2 -3 -1 -2 -3 -3 -3 -3 -3 -4 -4 -5 -5 -5 -6 -6 -6 -6 -6 -6 -6 -6 -6 -5 -5 -5 -5 -5 -5 -5 -5 -5 -5 -5 -6 -7 -7 -7 -7
-7 -6 -6 -3 -3 -3 -3 -3 -3 -3 -3 -3 -4 -4 -4 -5 -5 -5 -6 -6 -6 -6 -6 -6 -6 -7 -6 -6 -6 -6 -5 -5 -5 -5 -4 -4 -5 -5 -5 -6 -7 -7 -8 -8
-6 -6 -6 -4 -3 -3 -4 -4 -3 -4 -4 -4 -5 -5 -5 -6 -6 -7 -7 -8 -8 -7 -6 -6 -7 -7 -7 -6 -6 -6 -6 -6 -5 -4 -4 -5 -5 -5 -5 -6 -6 -7 -8 -8
-7 -7 -6 -4 -4 -4 -3 -4 -5 -5 -5 -5 -6 -6 -6 -7 -7 -7 -8 -8 -8 -8 -8 -7 -8 -7 -6 -6 -6 -6 -6 -6 -5 -5 -5 -5 -5 -5 -6 -6 -6 -7 -7 -8
-6 -5 -5 -4 -4 -5 -5 -5 -5 -5 -6 -6 -6 -6 -7 -7 -7 -8 -8 -8 -8 -9 -8 -8 -8 -7 -7 -6 -6 -6 -6 -7 -7 -7 -6 -5 -5 -5 -6 -6 -6 -7 -7 -8
-6 -6 -5 -5 -5 -5 -5 -6 -6 -6 -7 -7 -7 -7 -7 -7 -7 -7 -8 -8 -9 -8 -7 -8 -7 -7 -7 -7 -6 -6 -6 -6 -7 -6 -6 -5 -5 -6 -6 -6 -6 -7 -7 -7
-6 -6 -6 -6 -6 -6 -6 -6 -7 -7 -7 -7 -7 -7 -7 -8 -8 -8 -9 -9 -9 -8 -7 -8 -7 -7 -7 -7 -7 -6 -6 -6 -7 -7 -6 -6 -6 -6 -6 -7 -7 -7 -7 -8
-6 -6 -6 -6 -6 -7 -7 -7 -7 -7 -7 -7 -8 -8 -8 -9 -9 -9 -9 -9 -9 -8 -8 -8 -8 -7 -7 -7 -7 -6 -6 -6 -7 -7 -7 -6 -7 -6 -7 -7 -7 -8 -8 -8
-6 -6 -7 -7 -7 -7 -7 -7 -7 -7 -7 -8 -8 -9 -9 -8 -8 -9 -9 -8 -8 -8 -9 -8 -8 -8 -7 -7 -7 -6 -6 -7 -6 -6 -6 -6 -7 -6 -7 -7 -7 -8 -8 -9
-7 -7 -7 -7 -7 -7 -7 -7 -7 -8 -8 -9 -9 -9 -9 -9 -9 -9 -9 -8 -8 -8 -9 -8 -8 -7 -7 -7 -7 -7 -7 -7 -7 -7 -6 -6 -6 -6 -6 -7 -7 -7 -7 -8
-8 -7 -7 -7 -7 -8 -8 -7 -8 -8 -8 -9 -9 -9 -9 -9 -10 -10 -9 -9 -9 -8 -8 -8 -8 -7 -7 -7 -7 -7 -7 -7 -7 -7 -7 -6 -6 -6 -6 -6 -7 -7 -7 -8
-7 -7 -8 -8 -9 -8 -8 -8 -9 -9 -9 -10 -10 -10 -9 -10 -9 -9 -9 -9 -9 -9 -8 -8 -8 -7 -7 -7 -7 -7 -7 -7 -7 -7 -7 -7 -7 -6 -7 -7 -7 -8 -8 -8
-8 -8 -8 -8 -8 -8 -9 -9 -9 -9 -9 -10 -10 -10 -9 -9 -9 -9 -9 -9 -9 -9 -8 -8 -7 -7 -7 -7 -7 -7 -7 -7 -7 -7 -7 -7 -7 -7 -7 -7 -8 -8 -8 -9
-8 -8 -8 -8 -9 -9 -9 -9 -9 -9 -9 -9 -9 -9 -9 -9 -9 -9 -8 -9 -10 -9 -8 -7 -7 -7 -7 -7 -7 -7 -8 -7 -7 -7 -7 -8 -8 -7 -7 -8 -8 -8 -9 -9
-8 -8 -8 -7 -8 -9 -9 -9 -9 -9 -9 -10 -10 -9 -9 -9 -9 -8 -9 -9 -9 -8 -8 -8 -8 -7 -7 -7 -7 -8 -8 -8 -8 -8 -8 -8 -8 -8 -8 -8 -8 -9 -9 -9
-8 -8 -8 -8 -8 -8 -9 -9 -9 -10 -10 -9 -9 -9 -8 -8 -8 -8 -8 -8 -8 -8 -8 -8 -8 -8 -8 -8 -8 -9 -9 -9 -9 -9 -9 -9 -9 -9 -9 -9 -9 -9 -9 -9
-9 -9 -9 -9 -8 -9 -9 -9 -9 -9 -8 -8 -9 -8 -8 -8 -8 -8 -8 -8 -8 -8 -8 -8 -8 -8 -8 -9 -10 -9 -9 -9 -9 -9 -9 -9 -10 -9 -9 -9 -9 -9 -10 -10
-9 -9 -9 -8 -8 -8 -9 -9 -9 -9 -8 -8 -8 -8 -8 -8 -8 -8 -8 -9 -9 -9 -9 -9 -9 -9 -9 -9 -10 -10 -10 -10 -10 -10 -10 -10 -10 -10 -10 -10 -10 -10 -11 -11
-8 -9 -8 -8 -8 -9 -9 -9 -8 -8 -8 -8 -9 -9 -9 -9 -9 -9 -9 -9 -9 -9 -9 -9 -9 -10 -10 -10 -10 -10 -11 -11 -11 -11 -11 -11 -11 -12 -12 -12 -12 -12 -12 -12
-9 -8 -8 -9 -9 -9 -9 -9 -9 -9 -9 -9 -9 -9 -9 -9 -9 -10 -10 -10 -10 -10 -10 -10 -10 -10 -11 -11 -11 -11 -12 -12 -12 -12 -12 -12 -12 -12 -12 -12 -12 -13 -13 -13
-9 -9 -8 -8 -8 -9 -9 -9 -9 -9 -9 -9 -9 -9 -9 -9 -10 -10 -10 -10 -10 -11 -11 -11 -11 -11 -12 -12 -12 -12 -12 -12 -12 -12 -12 -12 -12 -12 -13 -13 -13 -13 -13 -14
-9 -9 -9 -9 -9 -9 -9 -9 -9 -9 -9 -9 -9 -9 -9 -10 -10 -10 -11 -11 -11 -11 -11 -11 -12 -12 -12 -12 -12 -12 -12 -12 -12 -12 -12 -13 -13 -13 -13 -13 -13 -14 -14 -14
-9 -9 -9 -9 -9 -9 -9 -9 -9 -9 -9 -9 -9 -10 -10 -10 -10 -11 -11 -11 -11 -12 -12 -12 -12 -12 -12 -12 -12 -12 -12 -12 -13 -13 -13 -13 -13 -13 -14 -14 -14 -15 -15 -15

GFSNGP_700_temp_198.txt.gz
Temp
1 2 3 2 3 3 3 3 2 2 1 2 0 -1 -1 -1 -2 -2 -1 -0 -1 -2 -2 -2 -3 -3 -3 -3 -4 -4 -4 -4 -4 -4 -4 -4 -4 -4 -5 -4 -4 -4 -5 -5
-1 0 1 2 1 3 3 3 2 2 1 0 -2 -3 -2 -1 -2 -2 -2 -2 -3 -3 -3 -3 -3 -3 -4 -4 -5 -5 -5 -5 -4 -4 -4 -4 -4 -4 -4 -4 -4 -5 -5 -6
-2 -2 -1 -2 -0 0 2 1 1 0 -0 -0 -2 -3 -3 -3 -2 -2 -2 -3 -3 -3 -3 -3 -4 -4 -4 -5 -5 -5 -5 -4 -4 -4 -5 -4 -4 -4 -4 -4 -5 -5 -6 -7
-5 -4 -3 -0 -0 0 1 -0 -0 0 -1 -2 -3 -3 -2 -2 -2 -2 -3 -3 -3 -4 -4 -4 -4 -4 -5 -5 -5 -5 -4 -4 -5 -5 -5 -4 -4 -4 -4 -5 -6 -6 -7 -7
-5 -5 -4 -2 -2 -2 -1 -1 -0 -2 -2 -3 -2 -2 -2 -2 -3 -4 -4 -4 -4 -4 -4 -4 -4 -5 -5 -5 -5 -5 -4 -5 -5 -4 -4 -4 -4 -4 -4 -5 -6 -6 -7 -7
-6 -6 -4 -1 -1 -1 -2 -3 -2 -2 -1 -1 -2 -3 -3 -3 -4 -4 -4 -4 -4 -4 -4 -4 -5 -6 -5 -5 -5 -5 -5 -5 -5 -6 -5 -4 -4 -4 -5 -6 -6 -7 -8 -8
-5 -5 -5 -3 -2 -2 -4 -3 -1 -1 -1 -2 -3 -3 -3 -4 -4 -4 -4 -5 -5 -5 -5 -6 -6 -6 -6 -5 -5 -5 -5 -5 -6 -6 -6 -6 -5 -5 -6 -6 -7 -7 -8 -8
-5 -6 -5 -3 -3 -3 -2 -2 -2 -1 -2 -3 -3 -3 -3 -4 -4 -5 -5 -6 -6 -6 -7 -7 -7 -6 -5 -6 -6 -6 -6 -6 -6 -6 -7 -7 -6 -6 -6 -6 -7 -7 -8 -8
-4 -5 -4 -3 -3 -4 -3 -2 -2 -3 -3 -3 -4 -4 -5 -6 -6 -6 -7 -7 -7 -7 -7 -7 -7 -6 -6 -6 -6 -6 -6 -5 -6 -7 -7 -6 -6 -6 -6 -7 -7 -7 -8 -8
-6 -7 -5 -5 -4 -4 -3 -4 -4 -5 -5 -5 -5 -6 -6 -6 -7 -7 -7 -7 -7 -7 -7 -7 -7 -6 -6 -6 -6 -7 -6 -6 -6 -8 -7 -6 -6 -6 -6 -7 -7 -8 -8 -8
-5 -6 -6 -5 -4 -4 -5 -5 -5 -6 -6 -6 -6 -7 -7 -7 -7 -7 -7 -7 -7 -7 -7 -7 -6 -6 -7 -7 -7 -7 -6 -6 -6 -7 -7 -7 -7 -7 -7 -7 -8 -8 -8 -9
-6 -5 -5 -5 -5 -6 -5 -5 -6 -6 -6 -6 -7 -7 -7 -7 -7 -8 -8 -8 -8 -7 -6 -7 -6 -7 -7 -7 -7 -7 -6 -6 -6 -7 -8 -7 -7 -7 -7 -8 -8 -8 -8 -9
-5 -5 -5 -5 -5 -5 -6 -6 -6 -6 -6 -7 -7 -7 -7 -8 -8 -8 -9 -9 -8 -7 -6 -7 -7 -7 -7 -7 -7 -7 -7 -6 -6 -7 -7 -7 -7 -7 -7 -7 -7 -8 -8 -8
-6 -6 -6 -6 -6 -6 -6 -6 -7 -7 -7 -7 -7 -7 -7 -8 -9 -9 -10 -9 -8 -7 -7 -7 -7 -7 -7 -7 -7 -7 -7 -7 -7 -7 -7 -6 -6 -7 -7 -7 -7 -7 -7 -8
-6 -6 -6 -6 -6 -7 -7 -7 -7 -7 -7 -7 -8 -8 -8 -9 -10 -10 -10 -10 -9 -8 -7 -7 -7 -7 -7 -7 -7 -7 -7 -7 -7 -7 -7 -7 -7 -7 -7 -7 -7 -7 -7 -8
-6 -7 -7 -7 -7 -7 -7 -7 -7 -8 -8 -8 -9 -9 -9 -10 -10 -10 -10 -9 -9 -8 -7 -7 -7 -8 -7 -7 -7 -7 -7 -7 -7 -7 -7 -7 -7 -7 -7 -7 -8 -8 -8 -8
-7 -7 -7 -7 -7 -7 -7 -8 -8 -8 -9 -9 -9 -10 -10 -9 -9 -9 -9 -9 -9 -9 -8 -7 -7 -8 -8 -7 -7 -7 -7 -7 -7 -7 -7 -7 -7 -7 -8 -8 -8 -9 -9 -9
-8 -8 -8 -8 -8 -8 -8 -8 -9 -8 -9 -9 -9 -9 -9 -9 -9 -9 -9 -10 -10 -9 -8 -7 -8 -8 -7 -7 -7 -8 -8 -8 -8 -7 -7 -8 -7 -7 -8 -8 -9 -9 -10 -10
-8 -8 -8 -8 -8 -8 -8 -8 -9 -9 -9 -9 -9 -9 -9 -9 -9 -9 -9 -9 -10 -9 -8 -8 -7 -8 -8 -8 -8 -8 -8 -8 -8 -9 -9 -8 -8 -8 -8 -9 -9 -9 -10 -10
-8 -8 -8 -8 -8 -8 -8 -9 -9 -9 -9 -9 -9 -9 -9 -9 -9 -9 -8 -8 -8 -8 -8 -8 -8 -8 -8 -8 -8 -8 -9 -9 -9 -9 -9 -9 -9 -9 -9 -9 -10 -10 -10 -10
-9 -8 -8 -8 -8 -8 -8 -9 -9 -9 -8 -9 -9 -9 -9 -9 -8 -8 -8 -8 -8 -8 -8 -9 -9 -8 -8 -8 -8 -9 -9 -9 -9 -9 -9 -9 -9 -10 -10 -10 -10 -10 -11 -11
-9 -9 -9 -9 -9 -9 -8 -8 -8 -8 -8 -8 -8 -8 -8 -8 -8 -8 -8 -8 -8 -9 -9 -9 -9 -9 -9 -9 -9 -9 -9 -10 -10 -10 -10 -10 -10 -10 -10 -11 -11 -11 -11 -11
-9 -9 -8 -9 -9 -8 -8 -8 -9 -9 -8 -8 -8 -9 -9 -9 -9 -9 -9 -9 -9 -9 -9 -9 -9 -10 -10 -10 -10 -10 -10 -10 -10 -11 -11 -11 -12 -11 -12 -12 -12 -12 -12 -12
-9 -9 -9 -9 -9 -9 -9 -9 -9 -9 -8 -9 -9 -9 -9 -9 -9 -9 -9 -10 -10 -10 -10 -10 -10 -10 -10 -11 -11 -11 -11 -11 -12 -12 -12 -12 -12 -12 -12 -12 -12 -12 -12 -13
-9 -9 -9 -9 -9 -9 -9 -9 -9 -9 -9 -9 -9 -9 -9 -9 -10 -10 -10 -10 -10 -10 -10 -11 -11 -11 -11 -11 -12 -12 -12 -12 -12 -12 -12 -12 -12 -12 -12 -13 -13 -13 -13 -13
-9 -9 -9 -9 -9 -9 -9 -9 -9 -9 -9 -9 -9 -9 -9 -10 -10 -10 -10 -10 -11 -11 -11 -11 -11 -12 -12 -12 -12 -12 -12 -12 -12 -12 -12 -12 -13 -13 -13 -13 -13 -13 -13 -14
-9 -9 -9 -9 -9 -9 -9 -10 -10 -10 -10 -9 -9 -9 -10 -10 -10 -10 -11 -11 -11 -11 -12 -12 -12 -12 -12 -12 -12 -12 -12 -12 -12 -12 -13 -13 -13 -13 -13 -14 -14 -14 -15 -15

GFSNGP_700_temp_204.txt.gz
Temp
-1 1 3 3 3 3 2 3 3 4 3 4 4 4 5 4 3 3 2 1 0 -0 -0 -0 -1 -1 -1 -1 -1 -2 -2 -2 -2 -2 -2 -2 -2 -3 -3 -3 -3 -3 -2 -3
-1 -0 1 2 3 3 4 3 3 3 3 4 3 3 3 3 3 2 2 1 -0 -0 -1 -1 -1 -2 -3 -2 -3 -2 -2 -2 -2 -2 -2 -2 -3 -3 -4 -4 -3 -3 -2 -3
-1 -1 -0 -1 2 2 3 3 4 2 4 3 3 3 2 2 1 0 1 -0 -0 -1 -1 -2 -3 -3 -3 -3 -3 -2 -2 -2 -2 -2 -2 -3 -3 -3 -4 -4 -4 -3 -3 -5
-1 -1 -1 0 0 1 2 2 2 3 2 2 2 2 -0 -0 -1 -1 -2 -1 -2 -2 -3 -2 -3 -3 -3 -3 -3 -3 -3 -3 -2 -3 -3 -3 -3 -4 -3 -4 -4 -5 -6 -6
-2 -1 -1 -0 0 1 1 2 2 3 3 3 1 -0 -0 -0 -1 -1 -2 -3 -2 -3 -3 -3 -5 -4 -4 -3 -3 -3 -3 -3 -3 -3 -3 -3 -4 -3 -4 -4 -6 -6 -6 -5
-4 -3 -2 1 2 2 1 -1 2 2 2 1 0 -1 2 0 -1 -2 -3 -3 -3 -4 -3 -4 -4 -4 -4 -4 -4 -3 -3 -3 -4 -4 -4 -4 -4 -5 -5 -5 -7 -7 -6 -7
-3 -3 -1 1 0 1 -1 2 4 4 3 2 2 4 2 1 -1 -2 -2 -3 -3 -4 -4 -4 -4 -5 -4 -4 -4 -4 -4 -4 -4 -4 -4 -5 -5 -5 -6 -6 -7 -6 -7 -6
-3 -3 -2 1 0 0 2 2 2 3 3 3 2 1 1 0 -2 -2 -3 -3 -4 -5 -5 -5 -5 -5 -5 -4 -4 -4 -4 -5 -5 -5 -5 -5 -5 -6 -6 -7 -7 -7 -6 -7
-1 -0 1 1 2 1 1 1 1 1 1 2 1 0 -1 -2 -2 -3 -4 -4 -5 -5 -5 -6 -5 -5 -5 -4 -5 -5 -5 -5 -5 -5 -5 -6 -5 -7 -7 -7 -7 -7 -7 -7
-1 -0 1 2 2 1 -0 -0 -0 -1 -1 -1 -1 -2 -3 -3 -3 -4 -4 -5 -5 -6 -6 -6 -5 -5 -5 -4 -5 -5 -6 -6 -6 -6 -6 -5 -6 -7 -7 -7 -7 -7 -7 -8
-3 -2 -0 0 -1 -1 -2 -2 -2 -3 -3 -3 -3 -4 -4 -4 -4 -5 -5 -5 -6 -6 -6 -6 -5 -5 -5 -5 -5 -6 -6 -5 -6 -6 -5 -6 -7 -7 -7 -7 -8 -8 -8 -8
-1 -0 0 0 -0 -3 -3 -4 -4 -4 -4 -4 -4 -4 -4 -4 -5 -5 -6 -6 -7 -7 -7 -6 -6 -6 -5 -6 -6 -6 -6 -6 -6 -6 -6 -5 -7 -7 -7 -7 -8 -8 -8 -8
-1 -1 -1 -2 -2 -3 -3 -6 -6 -6 -4 -4 -4 -5 -5 -6 -6 -7 -7 -7 -7 -7 -7 -6 -6 -6 -6 -7 -7 -6 -6 -6 -6 -6 -6 -5 -5 -6 -7 -7 -8 -8 -8 -8
-3 -3 -3 -4 -4 -4 -5 -7 -6 -5 -5 -5 -6 -6 -7 -7 -7 -7 -7 -7 -7 -7 -7 -7 -7 -7 -7 -7 -7 -7 -7 -7 -7 -6 -6 -6 -6 -6 -6 -7 -7 -8 -9 -9
-4 -4 -5 -5 -5 -8 -7 -6 -6 -6 -6 -6 -7 -7 -7 -7 -7 -7 -7 -7 -8 -8 -8 -8 -8 -9 -8 -8 -7 -7 -7 -7 -7 -7 -6 -5 -6 -6 -6 -7 -7 -8 -8 -8
-6 -6 -7 -8 -8 -8 -7 -7 -6 -6 -7 -7 -7 -7 -7 -7 -7 -7 -8 -8 -9 -9 -9 -9 -9 -9 -9 -8 -8 -8 -7 -7 -8 -7 -6 -6 -6 -6 -7 -7 -8 -8 -8 -8
-7 -7 -8 -8 -8 -8 -7 -7 -7 -7 -7 -7 -7 -7 -7 -7 -8 -8 -9 -9 -9 -9 -9 -9 -10 -10 -9 -8 -8 -8 -7 -8 -8 -8 -7 -7 -7 -7 -7 -7 -8 -8 -9 -9
-8 -8 -8 -8 -7 -7 -7 -7 -7 -7 -7 -7 -7 -7 -8 -8 -8 -8 -8 -9 -9 -9 -9 -11 -10 -9 -8 -8 -8 -8 -8 -8 -8 -8 -8 -8 -8 -8 -8 -8 -8 -8 -9 -10
-9 -9 -8 -8 -7 -7 -7 -7 -7 -7 -7 -7 -7 -7 -7 -8 -8 -8 -9 -9 -9 -10 -10 -11 -10 -9 -8 -8 -8 -8 -8 -8 -8 -8 -9 -9 -9 -9 -9 -9 -9 -9 -9 -9
-9 -8 -8 -8 -8 -8 -8 -7 -7 -7 -7 -8 -8 -8 -8 -8 -8 -8 -9 -9 -10 -10 -10 -10 -9 -9 -9 -8 -8 -8 -8 -8 -8 -8 -9 -10 -10 -10 -10 -10 -9 -9 -10 -10
-8 -8 -8 -8 -8 -8 -7 -7 -7 -7 -8 -8 -8 -9 -9 -8 -8 -8 -9 -9 -9 -9 -9 -10 -9 -9 -9 -9 -9 -9 -9 -9 -9 -9 -9 -10 -10 -10 -10 -10 -10 -10 -10 -11
-9 -9 -8 -8 -8 -8 -8 -8 -8 -8 -8 -9 -8 -8 -8 -8 -8 -8 -8 -8 -9 -9 -9 -9 -9 -9 -9 -9 -9 -9 -9 -9 -9 -10 -10 -10 -10 -10 -11 -11 -11 -11 -11 -12
-9 -9 -9 -9 -8 -8 -9 -8 -8 -8 -8 -8 -8 -8 -8 -8 -8 -8 -9 -9 -9 -10 -10 -9 -9 -9 -9 -9 -10 -10 -10 -10 -10 -10 -11 -11 -11 -11 -12 -12 -12 -12 -12 -12
-9 -9 -9 -9 -9 -9 -9 -9 -9 -8 -8 -8 -8 -8 -8 -9 -9 -9 -9 -10 -10 -10 -10 -10 -10 -10 -10 -10 -10 -10 -11 -11 -11 -11 -11 -11 -12 -12 -12 -12 -12 -12 -12 -13
-9 -9 -9 -9 -9 -9 -9 -9 -8 -9 -9 -9 -9 -9 -9 -9 -9 -9 -10 -10 -10 -10 -10 -10 -10 -10 -10 -10 -11 -11 -11 -11 -11 -12 -12 -12 -12 -12 -12 -12 -12 -13 -13 -13
-9 -9 -9 -9 -9 -9 -9 -9 -9 -9 -9 -9 -9 -9 -9 -9 -9 -10 -10 -10 -10 -10 -10 -10 -10 -11 -11 -11 -11 -12 -12 -12 -11 -11 -12 -12 -12 -12 -12 -13 -13 -13 -13 -14
-9 -9 -9 -9 -9 -9 -9 -9 -9 -9 -9 -9 -9 -9 -9 -9 -9 -10 -10 -10 -10 -10 -10 -10 -11 -11 -11 -12 -12 -12 -12 -11 -12 -12 -12 -12 -12 -12 -12 -13 -13 -13 -13 -14

GFSNGP_700_temp_207.txt.gz
Temp
-1 1 1 1 0 1 1 2 2 4 4 6 5 4 5 5 4 5 5 5 4 3 1 1 0 -0 -0 -1 -1 -1 -1 -1 -1 -1 -1 -1 -2 -2 -2 -2 -2 -3 -3 -3
-2 -1 -1 0 1 1 2 2 2 3 3 4 3 3 3 4 4 4 4 4 3 1 -0 -1 -1 -1 -1 -2 -2 -2 -2 -2 -2 -1 -2 -2 -2 -2 -2 -2 -2 -3 -2 -2
-2 -2 -2 -2 -2 -1 -1 1 2 2 4 3 4 3 3 4 4 4 3 2 0 -0 -1 -2 -2 -2 -2 -2 -2 -2 -3 -2 -2 -2 -2 -2 -2 -2 -2 -2 -3 -2 -3 -3
-1 -2 -1 -1 -2 -1 -1 1 1 2 3 2 3 3 3 3 3 3 1 -0 -2 -3 -3 -3 -3 -3 -3 -3 -4 -4 -3 -3 -2 -2 -2 -2 -2 -2 -2 -3 -2 -2 -4 -4
-1 -1 -1 -1 -0 -1 -1 0 2 2 2 2 2 2 2 2 1 1 -1 -0 -3 -3 -5 -5 -5 -3 -5 -5 -4 -4 -3 -3 -2 -3 -2 -3 -3 -3 -3 -3 -3 -3 -4 -4
-2 -1 -0 2 1 2 -0 -1 2 2 2 1 2 1 2 1 -0 -0 -1 -2 -3 -3 -5 -5 -4 -5 -6 -5 -4 -3 -3 -3 -3 -3 -3 -4 -4 -4 -4 -3 -4 -4 -4 -5
-3 -3 -2 -0 1 1 -1 2 3 2 2 -0 0 2 3 -0 -0 -0 -0 -3 -4 -4 -4 -4 -4 -6 -5 -4 -3 -3 -3 -3 -3 -3 -4 -4 -4 -4 -4 -4 -5 -5 -5 -6
-2 -2 -2 -0 0 2 3 1 3 3 3 2 3 2 1 1 1 -0 -1 -1 -3 -4 -4 -4 -6 -5 -5 -4 -4 -3 -3 -4 -4 -4 -4 -4 -4 -4 -4 -5 -5 -6 -7 -7
-2 -1 -0 1 1 2 2 2 2 2 2 2 2 1 1 1 0 -0 -1 -2 -3 -4 -5 -6 -5 -5 -4 -4 -4 -4 -4 -4 -5 -5 -4 -4 -5 -5 -6 -6 -6 -7 -8 -8
-2 -1 -1 -0 0 0 2 1 1 1 1 1 1 -0 -0 -0 -2 -2 -3 -3 -4 -5 -5 -5 -5 -5 -5 -5 -5 -4 -5 -5 -5 -5 -5 -5 -5 -6 -6 -7 -8 -8 -8 -8
-3 -1 -1 -1 0 -0 -0 -0 -0 0 0 0 -0 -1 -2 -3 -3 -3 -4 -5 -5 -6 -6 -6 -6 -6 -5 -5 -5 -5 -5 -5 -5 -5 -5 -5 -5 -6 -6 -7 -8 -8 -8 -8
-3 -3 -3 -2 -3 -3 -2 -2 -2 -1 -1 -1 -2 -3 -4 -4 -4 -5 -5 -5 -5 -5 -6 -6 -6 -6 -5 -5 -5 -5 -6 -6 -6 -6 -5 -6 -5 -6 -7 -7 -7 -7 -8 -8
-2 -3 -3 -2 -3 -3 -2 -4 -3 -2 -3 -3 -3 -4 -4 -5 -5 -6 -5 -5 -6 -6 -7 -6 -6 -6 -6 -6 -6 -6 -6 -6 -6 -6 -6 -6 -6 -6 -6 -6 -7 -8 -8 -7
-2 -3 -3 -3 -2 -3 -4 -4 -4 -6 -4 -4 -4 -5 -5 -5 -5 -6 -6 -7 -7 -7 -7 -7 -7 -7 -7 -7 -7 -7 -7 -7 -7 -6 -6 -7 -6 -6 -7 -7 -8 -8 -8 -7
-3 -3 -4 -4 -4 -4 -4 -6 -7 -6 -5 -5 -5 -5 -6 -6 -6 -7 -7 -7 -7 -7 -7 -8 -8 -8 -8 -8 -8 -8 -8 -8 -7 -7 -7 -7 -7 -7 -7 -8 -8 -8 -8 -8
-4 -4 -6 -5 -5 -5 -6 -7 -7 -6 -6 -6 -6 -6 -6 -7 -7 -7 -7 -7 -7 -8 -8 -9 -9 -9 -9 -9 -9 -8 -8 -8 -8 -7 -7 -8 -7 -7 -7 -7 -8 -8 -8 -8
-6 -6 -6 -6 -6 -8 -8 -7 -8 -8 -8 -7 -7 -7 -7 -7 -7 -7 -7 -7 -8 -9 -9 -9 -9 -9 -10 -9 -8 -8 -8 -8 -8 -8 -8 -8 -8 -8 -8 -8 -8 -8 -8 -8
-7 -7 -7 -8 -9 -9 -9 -9 -8 -8 -7 -7 -7 -7 -7 -7 -7 -7 -8 -8 -9 -9 -9 -9 -10 -9 -9 -9 -8 -8 -8 -8 -8 -8 -9 -9 -9 -9 -8 -8 -9 -9 -9 -9
-8 -9 -8 -8 -9 -9 -9 -8 -7 -7 -7 -7 -7 -7 -7 -7 -7 -8 -8 -9 -9 -9 -9 -9 -10 -9 -9 -9 -9 -8 -8 -8 -9 -9 -9 -10 -10 -9 -9 -9 -9 -9 -9 -9
-8 -9 -9 -9 -9 -9 -8 -8 -7 -7 -7 -7 -7 -8 -8 -8 -8 -8 -8 -8 -8 -9 -9 -9 -9 -9 -9 -9 -9 -9 -8 -8 -9 -9 -9 -10 -10 -10 -10 -10 -10 -10 -10 -10
-9 -9 -9 -9 -8 -8 -8 -8 -8 -8 -8 -8 -8 -8 -8 -8 -8 -8 -8 -8 -9 -9 -9 -9 -9 -9 -9 -9 -9 -9 -9 -9 -9 -9 -10 -10 -10 -10 -10 -10 -10 -10 -10 -10
-9 -9 -9 -9 -9 -8 -8 -8 -8 -8 -8 -8 -8 -8 -8 -8 -8 -8 -8 -9 -9 -9 -9 -9 -9 -9 -9 -9 -9 -9 -9 -9 -9 -10 -10 -11 -11 -11 -11 -11 -11 -11 -11 -11
-9 -9 -9 -9 -9 -8 -8 -8 -8 -8 -8 -9 -9 -9 -9 -9 -8 -8 -8 -8 -9 -9 -9 -9 -9 -9 -9 -9 -9 -10 -10 -10 -10 -11 -11 -11 -11 -11 -11 -11 -12 -12 -12 -12
-9 -9 -9 -9 -9 -9 -9 -9 -9 -9 -9 -9 -9 -9 -9 -9 -9 -8 -9 -9 -9 -9 -9 -9 -9 -9 -9 -10 -10 -10 -10 -11 -11 -11 -11 -11 -11 -12 -12 -12 -12 -12 -12 -12
-10 -10 -10 -9 -10 -9 -9 -9 -9 -9 -9 -9 -9 -9 -9 -9 -9 -9 -9 -9 -9 -9 -10 -10 -10 -10 -10 -10 -10 -11 -11 -11 -11 -11 -12 -12 -12 -12 -12 -12 -12 -12 -12 -13
-10 -10 -10 -10 -10 -10 -10 -10 -9 -9 -9 -9 -9 -9 -9 -9 -9 -9 -9 -9 -10 -10 -10 -10 -10 -10 -10 -10 -11 -11 -11 -12 -12 -12 -12 -12 -12 -12 -12 -12 -12 -13 -13 -13
-10 -10 -10 -10 -10 -10 -10 -10 -10 -10 -10 -10 -10 -10 -10 -10 -9 -9 -10 -10 -10 -10 -10 -10 -10 -10 -11 -11 -11 -12 -12 -12 -12 -12 -12 -12 -12 -12 -12 -12 -13 -13 -13 -14

GFSNGP_700_temp_210.txt.gz
Temp
-1 1 2 2 2 2 2 2 2 3 3 7 5 5 5 6 6 7 7 6 6 6 5 5 4 2 0 -0 -0 -0 -1 -1 -1 -1 -1 -0 -0 -0 -0 -0 -1 -1 -2 -2
-2 -1 0 1 3 3 2 2 2 3 3 5 4 5 4 4 5 6 6 6 5 5 5 4 3 1 -0 -1 -2 -2 -1 -1 -2 -1 -1 -1 -1 -0 -1 -1 -1 -2 -2 -2
-3 -2 -2 -1 -0 1 2 2 2 2 3 5 4 4 4 4 4 4 5 5 4 4 4 3 1 -0 -1 -1 -2 -2 -2 -2 -2 -1 -1 -1 -1 -2 -2 -2 -2 -3 -3 -2
-6 -5 -1 -1 -0 0 1 2 2 2 2 3 3 4 3 3 3 4 3 3 4 4 3 2 -0 -3 -3 -2 -4 -3 -3 -3 -2 -2 -2 -2 -2 -2 -2 -2 -3 -3 -3 -3
-5 -2 -1 -0 -1 -1 -0 1 1 2 2 2 3 3 3 3 3 3 3 3 3 3 2 -1 -2 -4 -4 -3 -4 -5 -3 -3 -2 -2 -2 -3 -3 -3 -3 -3 -3 -3 -3 -4
-6 -4 -0 2 2 1 0 -1 4 0 0 1 1 1 1 1 2 2 2 2 2 1 -1 -2 -2 -5 -4 -4 -4 -4 -4 -3 -3 -3 -3 -3 -3 -3 -3 -3 -3 -3 -4 -5
-6 -5 -1 2 2 2 -1 1 3 3 2 0 -0 1 0 0 0 -0 -0 -0 -2 -2 -1 -2 -3 -5 -6 -5 -5 -5 -4 -3 -3 -4 -4 -4 -4 -4 -4 -3 -4 -5 -5 -5
-5 -4 -2 -2 1 1 2 1 2 2 2 3 3 2 -1 -1 -1 -1 -1 -1 -1 -1 -2 -3 -4 -5 -5 -6 -5 -4 -4 -4 -4 -4 -4 -4 -4 -4 -4 -4 -5 -6 -6 -6
-3 -2 -2 -1 0 0 -1 -1 1 1 1 3 2 1 0 0 -1 -1 -1 -1 -1 -2 -3 -4 -4 -5 -6 -6 -5 -5 -4 -4 -4 -4 -4 -4 -4 -4 -4 -5 -6 -5 -6 -6
-3 -2 -3 -3 -3 -2 -1 -1 1 1 2 2 2 2 1 0 -0 -0 -1 -1 -1 -2 -4 -5 -5 -6 -6 -5 -5 -5 -5 -4 -4 -4 -4 -4 -4 -5 -5 -5 -5 -5 -6 -6
-1 -1 -3 -2 -2 -2 -2 -1 0 1 1 1 1 1 1 1 0 -1 -1 -1 -3 -4 -5 -6 -7 -6 -6 -6 -5 -5 -5 -5 -5 -5 -4 -4 -5 -5 -5 -5 -5 -6 -6 -6
-2 -2 -2 -3 -3 -3 -2 -2 -2 -1 -0 0 1 1 0 0 -0 -1 -2 -3 -4 -5 -6 -6 -6 -6 -6 -6 -6 -5 -5 -5 -5 -5 -5 -5 -5 -5 -5 -5 -5 -6 -6 -6
-3 -3 -2 -3 -3 -2 -2 -3 -3 -3 -3 -1 -0 -1 -1 -2 -2 -2 -4 -5 -5 -6 -6 -6 -7 -7 -6 -6 -6 -6 -6 -6 -6 -6 -6 -6 -5 -6 -5 -5 -6 -7 -7 -7
-3 -3 -2 -3 -2 -3 -3 -3 -2 -3 -2 -2 -2 -3 -3 -4 -4 -6 -6 -6 -6 -6 -6 -7 -7 -7 -7 -7 -6 -6 -6 -7 -7 -7 -7 -6 -6 -6 -6 -6 -6 -7 -7 -7
-3 -3 -3 -3 -3 -3 -3 -3 -3 -3 -3 -3 -4 -5 -5 -5 -5 -5 -6 -6 -6 -7 -7 -7 -7 -7 -7 -7 -7 -7 -8 -8 -8 -7 -7 -7 -6 -6 -7 -7 -7 -8 -8 -8
-4 -4 -4 -4 -4 -4 -4 -5 -4 -5 -5 -5 -5 -5 -5 -6 -6 -6 -6 -7 -7 -7 -7 -7 -7 -8 -8 -8 -8 -8 -9 -8 -8 -8 -7 -7 -7 -7 -8 -8 -7 -8 -8 -8
-5 -5 -5 -5 -5 -5 -5 -5 -6 -6 -6 -6 -6 -6 -6 -6 -6 -7 -7 -7 -7 -7 -7 -8 -8 -9 -9 -9 -9 -9 -8 -8 -8 -8 -8 -8 -8 -8 -8 -8 -8 -8 -8 -8
-6 -7 -6 -6 -6 -6 -5 -7 -7 -7 -7 -7 -8 -7 -6 -6 -7 -7 -7 -7 -7 -7 -8 -8 -9 -9 -9 -9 -9 -8 -8 -8 -8 -8 -8 -8 -9 -9 -8 -8 -8 -9 -9 -9
-7 -7 -6 -6 -7 -7 -8 -8 -8 -8 -8 -8 -7 -7 -7 -7 -7 -7 -7 -7 -8 -8 -9 -9 -9 -9 -9 -9 -9 -8 -8 -8 -9 -9 -9 -9 -9 -9 -9 -9 -9 -9 -9 -10
-8 -8 -8 -9 -9 -9 -9 -9 -9 -9 -8 -8 -7 -7 -7 -8 -8 -8 -8 -8 -9 -9 -9 -9 -10 -9 -9 -9 -9 -9 -9 -9 -9 -9 -9 -10 -10 -10 -10 -10 -10 -10 -10 -10
-9 -9 -9 -9 -9 -9 -10 -10 -9 -9 -8 -8 -8 -8 -8 -8 -8 -8 -8 -9 -9 -9 -9 -10 -10 -9 -9 -9 -9 -9 -9 -8 -9 -9 -9 -10 -10 -10 -10 -10 -10 -10 -11 -11
-9 -9 -9 -9 -10 -10 -9 -9 -8 -8 -8 -8 -8 -8 -8 -8 -9 -9 -9 -9 -9 -9 -9 -10 -9 -9 -9 -9 -9 -9 -9 -9 -9 -9 -10 -10 -10 -10 -11 -11 -11 -11 -11 -11
-10 -10 -10 -10 -10 -9 -9 -9 -8 -8 -8 -9 -9 -9 -9 -9 -9 -9 -8 -8 -9 -9 -9 -9 -9 -9 -9 -9 -9 -9 -9 -9 -10 -10 -10 -10 -11 -11 -11 -11 -11 -12 -12 -12
-10 -10 -10 -9 -9 -9 -9 -9 -8 -8 -9 -9 -9 -9 -9 -9 -9 -9 -9 -10 -9 -9 -9 -9 -9 -9 -9 -9 -9 -10 -10 -10 -10 -10 -10 -11 -11 -11 -12 -12 -12 -12 -12 -12
-10 -10 -10 -9 -9 -9 -9 -9 -9 -9 -9 -9 -9 -9 -9 -9 -9 -9 -9 -9 -9 -9 -9 -10 -10 -10 -10 -10 -10 -10 -10 -10 -10 -11 -11 -11 -12 -12 -12 -12 -12 -12 -12 -12
-10 -10 -10 -10 -10 -10 -10 -10 -10 -10 -10 -9 -9 -9 -9 -9 -9 -9 -9 -9 -9 -10 -10 -10 -10 -10 -10 -10 -10 -10 -11 -11 -11 -11 -11 -12 -12 -12 -12 -12 -12 -12 -12 -12
-10 -10 -10 -10 -10 -10 -10 -10 -10 -10 -10 -10 -10 -10 -10 -10 -10 -10 -10 -10 -10 -10 -10 -10 -10 -10 -10 -11 -11 -11 -11 -11 -11 -11 -12 -12 -12 -12 -12 -12 -12 -12 -12 -13

GFSNGP_700_temp_216.txt.gz
Temp
-7 -7 -6 -5 -2 -0 3 2 -0 0 2 4 7 6 6 6 6 6 7 7 7 7 7 7 7 7 6 6 6 6 6 5 4 2 1 1 1 1 0 0 -0 -2 -0 1
-7 -7 -6 -6 -5 -3 -0 1 3 3 2 4 5 6 5 5 5 6 6 7 6 6 6 6 7 7 6 6 6 6 6 5 3 1 1 1 0 0 -0 -0 -2 -1 -0 0
-7 -6 -7 -6 -3 -1 -0 1 2 4 4 4 4 5 5 5 5 5 6 6 6 6 6 6 6 6 6 6 6 5 5 5 3 1 0 0 -0 -1 -1 -2 -2 -1 -0 -0
-8 -7 -6 -5 -3 -2 -1 1 2 3 5 5 5 5 6 6 6 5 6 6 5 5 5 5 5 5 5 5 5 5 4 4 2 0 -0 -1 -1 -1 -3 -3 -2 -1 -1 -1
-8 -6 -6 -6 -3 -3 -1 0 2 2 0 3 3 4 5 5 5 5 5 5 5 5 4 5 5 5 5 5 4 4 3 2 0 -0 -1 -1 -2 -3 -3 -3 -2 -1 -2 -2
-7 -7 -6 -4 -3 -1 -2 -2 0 1 2 3 3 3 4 5 5 5 5 5 4 3 2 3 3 2 3 3 3 3 2 1 -1 -1 -2 -2 -3 -4 -5 -3 -2 -2 -2 -3
-8 -7 -6 -4 -3 -2 -2 -2 -1 1 2 2 3 3 4 4 4 4 4 4 4 3 3 2 2 0 1 2 1 2 2 -0 -2 -3 -2 -4 -4 -5 -4 -3 -3 -3 -3 -4
-7 -7 -6 -3 -3 -2 -1 -0 -0 0 1 1 2 2 2 3 3 3 3 3 3 2 0 1 2 0 0 -0 0 0 -3 -3 -4 -3 -5 -5 -6 -5 -3 -3 -3 -3 -4 -4
-6 -6 -5 -2 -3 -2 -1 1 -0 0 -0 -1 0 1 2 2 3 3 2 2 2 2 1 -0 0 1 -1 -0 -1 -3 -5 -6 -5 -6 -4 -6 -6 -4 -4 -4 -4 -4 -4 -5
-6 -6 -5 -5 -4 -3 -2 -1 -1 -0 -1 -1 -0 1 1 2 2 2 2 0 -1 -0 -1 -1 -0 -1 -2 -2 -3 -3 -4 -6 -5 -4 -6 -7 -5 -4 -4 -4 -4 -5 -5 -5
-6 -6 -5 -5 -4 -3 -2 -2 -2 -1 -1 -0 0 0 2 2 1 1 1 2 -1 -1 -2 -2 -2 -2 -2 -4 -5 -6 -6 -5 -5 -7 -7 -5 -5 -5 -5 -5 -5 -5 -5 -5
-6 -5 -5 -4 -4 -4 -3 -2 -2 -2 -2 -1 -1 -1 -0 1 0 0 0 1 -1 -2 -2 -2 -3 -3 -5 -6 -7 -6 -6 -6 -8 -7 -6 -5 -5 -5 -5 -5 -5 -6 -6 -6
-6 -6 -5 -5 -5 -4 -4 -3 -3 -1 -3 -2 -3 -2 0 1 -1 -0 -0 -0 -1 -2 -2 -3 -4 -6 -7 -6 -6 -6 -6 -8 -7 -6 -6 -6 -6 -6 -6 -6 -6 -6 -6 -6
-6 -6 -5 -4 -5 -4 -4 -4 -3 0 -3 -4 -4 -3 -2 0 -1 -1 -1 -1 -1 -2 -4 -5 -6 -6 -6 -6 -6 -7 -8 -7 -7 -6 -6 -6 -6 -6 -6 -6 -6 -7 -7 -7
-6 -6 -6 -5 -5 -5 -4 -4 -2 -2 -4 -4 -3 -3 -2 -2 -3 -2 -1 -1 -2 -4 -5 -6 -6 -6 -6 -6 -8 -8 -8 -7 -7 -6 -7 -7 -7 -7 -7 -7 -7 -8 -8 -7
-6 -6 -6 -5 -5 -5 -4 -4 -4 -4 -4 -4 -4 -4 -4 -4 -3 -3 -3 -3 -4 -5 -6 -6 -6 -7 -7 -8 -8 -8 -7 -7 -7 -7 -7 -7 -8 -8 -8 -8 -8 -8 -8 -8
-7 -6 -6 -6 -5 -5 -4 -4 -4 -5 -5 -5 -5 -5 -5 -4 -5 -5 -5 -6 -6 -6 -7 -7 -7 -8 -8 -8 -8 -7 -7 -8 -8 -8 -8 -9 -8 -8 -8 -8 -8 -8 -8 -8
-7 -7 -6 -6 -6 -5 -5 -4 -5 -6 -6 -5 -5 -5 -5 -5 -5 -5 -5 -6 -6 -7 -8 -8 -8 -8 -8 -8 -8 -8 -8 -8 -8 -9 -9 -8 -8 -8 -8 -8 -8 -8 -8 -9
-7 -7 -7 -6 -6 -6 -5 -5 -5 -6 -6 -6 -6 -6 -5 -6 -6 -6 -7 -7 -7 -8 -8 -8 -8 -8 -8 -8 -8 -8 -9 -9 -9 -8 -8 -9 -9 -9 -9 -9 -9 -9 -9 -9
-7 -8 -7 -6 -6 -6 -6 -6 -6 -6 -6 -7 -6 -6 -6 -7 -7 -7 -7 -8 -8 -8 -8 -8 -8 -8 -9 -8 -9 -9 -8 -8 -8 -8 -8 -9 -9 -9 -9 -9 -9 -9 -9 -9
-7 -7 -7 -7 -7 -7 -7 -7 -8 -7 -7 -7 -8 -8 -8 -8 -8 -8 -8 -8 -8 -8 -8 -8 -9 -9 -9 -9 -9 -9 -8 -8 -8 -8 -9 -9 -9 -10 -10 -10 -10 -10 -10 -10
-9 -9 -8 -8 -7 -7 -8 -9 -9 -9 -9 -9 -8 -9 -9 -8 -8 -8 -8 -8 -8 -8 -8 -8 -8 -9 -9 -9 -9 -8 -8 -8 -8 -8 -9 -9 -9 -10 -10 -10 -10 -10 -10 -10
-9 -9 -9 -9 -9 -9 -9 -9 -9 -9 -9 -9 -9 -10 -9 -9 -8 -8 -8 -8 -8 -8 -8 -8 -9 -9 -9 -9 -9 -9 -9 -9 -8 -8 -9 -9 -10 -10 -10 -10 -11 -11 -11 -11
-9 -9 -9 -9 -9 -9 -10 -10 -10 -10 -10 -10 -9 -9 -9 -9 -8 -8 -8 -8 -8 -9 -9 -9 -9 -9 -9 -9 -9 -9 -9 -9 -9 -9 -9 -9 -10 -10 -10 -11 -11 -11 -11 -11
-10 -10 -10 -10 -10 -10 -9 -9 -9 -9 -9 -9 -9 -9 -9 -8 -9 -9 -9 -9 -9 -9 -9 -9 -9 -9 -9 -9 -9 -9 -9 -9 -9 -9 -9 -10 -10 -10 -11 -11 -11 -11 -11 -11
-10 -9 -9 -9 -9 -9 -9 -9 -9 -9 -9 -9 -9 -9 -9 -10 -9 -9 -9 -9 -9 -9 -9 -9 -9 -9 -9 -9 -9 -9 -9 -9 -9 -9 -10 -10 -10 -11 -11 -11 -11 -11 -11 -11
-10 -10 -9 -9 -9 -9 -9 -9 -9 -9 -9 -9 -10 -10 -10 -10 -9 -9 -9 -9 -9 -9 -9 -9 -9 -9 -9 -9 -9 -9 -9 -9 -10 -10 -10 -10 -11 -11 -11 -11 -11 -11 -11 -12

GFSNGP_700_temp_219.txt.gz
Temp
-8 -7 -8 -7 -7 -7 -6 -5 -3 -1 -0 2 4 4 5 6 6 7 7 7 6 7 7 8 7 7 8 8 7 7 7 7 6 5 4 3 3 2 1 1 1 1 0 0
-8 -7 -7 -7 -7 -6 -5 -4 -3 -2 -1 1 4 3 4 4 4 5 6 6 6 6 7 7 7 7 7 7 7 7 7 6 6 5 3 2 1 1 1 0 0 -0 -0 -1
-8 -7 -7 -8 -6 -5 -4 -3 -3 -2 1 2 2 4 3 4 4 4 5 5 6 6 6 6 6 6 7 6 6 6 6 5 5 5 3 2 0 0 -0 -1 -1 -1 -1 -2
-8 -8 -8 -6 -5 -4 -4 -3 -2 -2 -0 1 2 3 3 4 5 5 5 5 5 5 6 6 5 6 6 6 6 6 5 4 4 2 1 -0 -1 -1 -1 -2 -1 -2 -2 -3
-8 -8 -7 -6 -5 -4 -2 -2 -2 -2 -0 0 1 3 3 3 3 4 4 5 5 5 5 4 4 5 5 5 5 5 5 4 3 1 0 -1 -2 -2 -2 -2 -2 -3 -3 -4
-9 -9 -9 -6 -5 -4 -3 -5 -1 -1 -1 -0 1 1 3 5 3 4 4 5 4 5 5 5 5 4 4 4 4 4 4 4 2 -0 -1 -2 -3 -3 -3 -3 -4 -4 -5 -3
-8 -8 -8 -6 -5 -4 -5 -4 1 -1 -1 -0 -1 0 2 4 4 3 3 4 4 4 4 4 5 4 4 4 4 4 3 2 0 -1 -2 -3 -4 -4 -4 -4 -5 -5 -4 -4
-8 -8 -7 -3 -4 -6 -4 -3 -3 -2 -0 -1 -1 -0 1 3 3 2 3 3 3 3 4 4 4 4 4 3 3 3 3 1 -0 -2 -4 -5 -5 -5 -5 -5 -6 -5 -4 -3
-7 -6 -6 -5 -6 -5 -5 -5 -4 -4 -3 -2 -2 -0 0 2 3 3 2 3 2 3 3 3 3 3 3 2 3 2 0 -0 -1 -2 -5 -6 -6 -6 -6 -5 -6 -4 -3 -4
-8 -6 -6 -6 -6 -6 -5 -6 -5 -4 -3 -2 -1 0 1 1 2 2 2 2 3 3 2 2 2 2 1 1 1 1 -0 -1 -2 -2 -6 -7 -7 -6 -6 -6 -5 -4 -4 -4
-7 -6 -6 -6 -6 -6 -5 -5 -5 -4 -3 -3 -2 -1 0 0 1 1 1 1 1 1 1 1 1 -1 -1 -1 -1 -1 -1 -1 -3 -5 -7 -7 -6 -7 -7 -6 -5 -5 -5 -5
-6 -6 -8 -7 -6 -6 -6 -6 -4 -5 -4 -3 -1 -1 1 1 0 1 0 1 1 0 -0 -0 -1 -2 -2 -2 -2 -2 -3 -5 -6 -7 -6 -6 -9 -9 -6 -5 -5 -5 -6 -6
-7 -6 -6 -6 -7 -6 -6 -5 -4 -4 -4 -3 -2 -1 0 -2 -2 -0 -0 1 0 -0 -1 -1 -1 -2 -2 -3 -4 -4 -6 -6 -7 -6 -6 -9 -8 -6 -6 -6 -6 -6 -6 -6
-6 -6 -6 -6 -6 -6 -5 -5 -5 -4 -4 -4 -4 -2 -0 -2 -2 -2 -0 -0 0 -1 -2 -2 -3 -3 -4 -4 -6 -6 -6 -6 -6 -8 -9 -8 -7 -6 -6 -6 -6 -6 -6 -7
-6 -7 -6 -6 -6 -6 -5 -5 -5 -4 -4 -4 -3 -2 -3 -3 -2 -2 -1 -2 -1 -2 -3 -4 -5 -5 -6 -7 -6 -7 -7 -6 -8 -9 -8 -7 -7 -7 -7 -7 -7 -7 -7 -8
-7 -7 -6 -6 -6 -6 -5 -5 -5 -5 -4 -4 -4 -4 -4 -4 -3 -3 -3 -3 -3 -3 -4 -5 -6 -7 -7 -7 -7 -6 -8 -8 -8 -7 -7 -7 -7 -7 -8 -8 -8 -8 -8 -8
-7 -7 -7 -6 -6 -6 -6 -6 -5 -5 -5 -5 -5 -4 -4 -4 -5 -4 -3 -3 -4 -5 -6 -7 -7 -7 -8 -9 -9 -8 -8 -8 -8 -8 -7 -8 -8 -8 -8 -8 -8 -8 -9 -9
-7 -7 -7 -7 -6 -6 -6 -6 -6 -5 -6 -5 -3 -5 -5 -6 -5 -5 -5 -6 -7 -7 -8 -8 -8 -8 -8 -8 -9 -8 -8 -8 -8 -8 -8 -9 -9 -9 -9 -9 -9 -9 -9 -9
-7 -7 -7 -7 -7 -6 -6 -6 -6 -6 -6 -5 -5 -6 -6 -6 -6 -7 -7 -7 -8 -8 -8 -8 -8 -9 -9 -9 -8 -9 -9 -9 -9 -9 -9 -9 -9 -9 -9 -9 -9 -9 -9 -9
-7 -7 -7 -8 -7 -7 -6 -6 -7 -7 -6 -6 -6 -6 -6 -7 -7 -7 -7 -7 -8 -8 -8 -8 -8 -8 -8 -9 -9 -9 -9 -9 -9 -9 -9 -9 -9 -9 -10 -9 -10 -10 -10 -10
-8 -8 -8 -7 -7 -7 -6 -7 -7 -7 -7 -6 -7 -7 -7 -7 -7 -7 -8 -8 -8 -8 -8 -9 -8 -8 -8 -9 -9 -9 -9 -8 -8 -9 -9 -9 -10 -10 -10 -10 -10 -10 -10 -10
-9 -9 -8 -8 -7 -7 -7 -7 -8 -8 -8 -8 -8 -8 -8 -8 -8 -8 -8 -8 -8 -8 -8 -8 -9 -9 -9 -9 -9 -9 -8 -8 -8 -9 -9 -9 -10 -10 -10 -10 -10 -10 -10 -10
-9 -9 -9 -9 -9 -8 -8 -10 -9 -9 -9 -9 -9 -9 -9 -9 -9 -8 -8 -8 -8 -8 -8 -8 -8 -9 -9 -9 -9 -9 -8 -9 -9 -9 -9 -9 -10 -10 -10 -11 -11 -10 -10 -11
-9 -9 -9 -9 -9 -9 -9 -9 -9 -9 -9 -9 -9 -9 -10 -10 -10 -9 -9 -8 -8 -9 -9 -9 -9 -9 -9 -9 -9 -9 -9 -9 -9 -9 -9 -10 -10 -10 -10 -11 -10 -11 -11 -11
-10 -10 -10 -10 -10 -10 -9 -9 -9 -9 -9 -10 -10 -10 -10 -9 -9 -9 -8 -8 -9 -9 -9 -9 -9 -9 -9 -9 -9 -9 -9 -9 -9 -9 -9 -10 -10 -10 -10 -10 -11 -11 -11 -11
-10 -10 -10 -10 -9 -9 -9 -9 -9 -9 -9 -9 -9 -9 -9 -9 -9 -9 -9 -9 -9 -9 -9 -10 -10 -9 -9 -9 -9 -9 -9 -10 -9 -9 -9 -10 -10 -10 -10 -11 -11 -11 -11 -11
-10 -10 -10 -9 -9 -9 -9 -9 -9 -9 -9 -9 -9 -9 -9 -9 -9 -9 -9 -9 -9 -9 -10 -10 -10 -10 -10 -9 -10 -10 -10 -10 -9 -10 -10 -10 -10 -10 -11 -11 -11 -11 -11 -11

GFSNGP_700_temp_222.txt.gz
Temp
-8 -7 -7 -7 -7 -7 -7 -7 -7 -5 -3 4 5 2 3 3 3 3 4 6 6 6 7 7 7 8 8 8 8 8 8 7 7 6 5 5 4 4 2 1 2 1 0 0
-8 -7 -8 -7 -7 -7 -7 -6 -5 -5 -4 1 1 -1 2 2 2 3 4 4 5 6 6 6 6 7 7 7 7 8 7 7 6 5 6 5 4 3 1 1 1 -0 -0 0
-9 -8 -8 -8 -6 -6 -5 -5 -4 -5 -3 -1 -0 -1 0 1 2 2 3 3 4 5 5 5 6 6 7 7 7 7 7 6 6 5 5 4 4 2 1 1 -0 -1 -0 -0
-9 -9 -9 -7 -6 -6 -5 -4 -3 -3 -2 -2 -1 0 0 1 1 2 3 3 4 4 5 5 6 6 6 6 6 6 6 6 5 4 4 3 2 1 1 -0 -1 -1 -1 -1
-9 -8 -8 -7 -6 -6 -5 -4 -4 -4 -3 -2 -1 -1 -1 -0 0 2 2 4 4 4 4 5 5 5 5 6 6 5 5 5 4 4 3 2 1 -0 -1 -1 -1 -1 -1 -2
-9 -9 -9 -7 -6 -4 -5 -7 -4 -4 -2 -1 -1 -2 -1 -0 1 2 2 3 3 3 3 5 5 5 5 5 5 5 5 5 4 4 3 2 0 -1 -1 -2 -2 -2 -2 -3
-9 -9 -8 -4 -4 -7 -8 -6 -4 -4 -4 -3 -4 -2 -1 -0 -0 1 2 3 3 3 3 3 4 5 5 5 5 5 4 4 4 4 3 1 -1 -1 -2 -2 -3 -3 -4 -4
-9 -9 -9 -6 -6 -7 -6 -6 -6 -6 -6 -5 -4 -3 -1 -0 -1 -0 1 1 2 3 3 3 4 4 4 4 4 4 4 4 3 3 2 1 -1 -1 -2 -3 -3 -4 -5 -6
-8 -7 -6 -6 -6 -6 -7 -7 -6 -6 -6 -6 -5 -4 -2 -0 -1 -1 0 1 1 2 3 3 3 4 4 4 3 4 3 3 3 2 0 -1 -1 -3 -4 -5 -6 -5 -6 -6
-8 -7 -7 -7 -6 -5 -6 -7 -7 -6 -6 -6 -6 -5 -4 -3 -2 -1 0 -0 1 2 2 3 3 4 4 4 4 3 3 2 2 2 -0 -2 -2 -2 -6 -7 -6 -7 -6 -7
-8 -7 -7 -7 -6 -6 -7 -6 -6 -7 -6 -5 -5 -5 -4 -2 -1 -1 -0 1 1 1 1 1 2 2 3 3 3 3 2 1 0 -1 -2 -2 -3 -4 -7 -6 -6 -7 -8 -7
-8 -6 -8 -7 -6 -6 -7 -7 -7 -7 -6 -4 -4 -4 -4 -3 -1 -0 -0 -1 -1 -1 1 2 1 1 1 1 1 0 -0 0 -2 -2 -4 -6 -6 -5 -6 -7 -7 -9 -8 -6
-7 -7 -7 -7 -6 -6 -7 -6 -6 -7 -6 -5 -4 -4 -4 -3 -2 -0 -1 -1 -1 -1 -1 -1 -0 -0 -1 -1 -2 -1 -1 -3 -4 -6 -5 -5 -6 -7 -7 -8 -9 -8 -6 -6
-8 -8 -8 -7 -7 -6 -6 -6 -7 -6 -6 -5 -5 -4 -5 -3 -1 -2 -2 -2 -2 -2 -1 -1 -1 -2 -2 -2 -2 -2 -4 -5 -5 -6 -6 -7 -7 -7 -9 -10 -8 -7 -7 -7
-7 -7 -7 -7 -7 -7 -7 -7 -6 -5 -5 -5 -5 -4 -3 -3 -2 -3 -2 -3 -2 -2 -2 -1 -2 -2 -3 -3 -4 -5 -6 -6 -6 -6 -7 -7 -8 -10 -10 -8 -7 -7 -8 -8
-8 -8 -7 -7 -7 -7 -7 -6 -6 -5 -5 -5 -5 -4 -5 -4 -4 -3 -3 -3 -2 -2 -2 -2 -3 -4 -5 -5 -6 -6 -6 -6 -7 -7 -7 -8 -9 -8 -8 -8 -8 -8 -8 -9
-7 -7 -7 -7 -7 -7 -6 -6 -6 -5 -5 -5 -5 -5 -5 -5 -5 -4 -4 -4 -4 -4 -3 -4 -5 -6 -6 -6 -7 -7 -7 -7 -8 -7 -7 -8 -8 -8 -8 -9 -9 -9 -9 -9
-7 -7 -7 -7 -6 -6 -6 -6 -6 -5 -6 -6 -6 -5 -6 -5 -5 -5 -5 -6 -6 -6 -6 -6 -7 -7 -7 -7 -8 -8 -8 -8 -7 -7 -8 -8 -8 -8 -9 -9 -9 -9 -9 -9
-7 -7 -7 -7 -7 -6 -6 -6 -6 -6 -6 -6 -6 -6 -6 -6 -6 -7 -7 -7 -7 -7 -8 -8 -8 -8 -8 -8 -7 -7 -7 -8 -8 -8 -8 -9 -9 -9 -9 -9 -9 -9 -9 -9
-6 -7 -7 -7 -8 -7 -6 -6 -6 -6 -6 -6 -7 -7 -8 -8 -7 -7 -7 -8 -8 -8 -8 -8 -8 -8 -7 -7 -8 -8 -8 -8 -8 -8 -8 -9 -9 -9 -9 -9 -10 -10 -10 -10
-7 -7 -7 -7 -7 -7 -7 -7 -6 -6 -6 -6 -7 -8 -8 -7 -7 -7 -7 -7 -8 -8 -8 -8 -8 -8 -7 -8 -8 -8 -8 -8 -8 -9 -9 -9 -9 -9 -10 -10 -10 -10 -10 -10
-7 -8 -8 -8 -7 -8 -7 -7 -7 -7 -7 -7 -7 -8 -7 -7 -7 -8 -8 -8 -8 -8 -8 -8 -8 -8 -8 -9 -9 -9 -9 -9 -9 -9 -9 -9 -9 -10 -10 -10 -10 -10 -10 -10
-8 -8 -8 -8 -8 -8 -8 -8 -8 -7 -8 -8 -8 -8 -8 -8 -8 -8 -8 -8 -9 -9 -9 -9 -8 -9 -9 -9 -9 -9 -8 -8 -8 -9 -9 -10 -10 -10 -10 -10 -10 -10 -10 -11
-10 -9 -9 -9 -9 -9 -8 -8 -9 -10 -9 -9 -9 -9 -9 -9 -8 -8 -9 -9 -9 -9 -9 -9 -9 -9 -9 -9 -9 -9 -8 -9 -9 -9 -9 -9 -10 -10 -10 -10 -10 -10 -11 -11
-10 -10 -10 -9 -10 -10 -10 -9 -9 -9 -9 -9 -9 -9 -9 -10 -10 -10 -9 -9 -9 -9 -9 -9 -9 -9 -9 -9 -9 -9 -9 -9 -9 -9 -10 -10 -10 -10 -10 -10 -11 -11 -11 -11
-10 -10 -10 -10 -10 -10 -10 -10 -10 -10 -10 -10 -10 -10 -10 -10 -10 -10 -10 -9 -9 -9 -9 -9 -9 -10 -10 -10 -9 -9 -9 -9 -9 -10 -10 -10 -10 -10 -10 -11 -11 -11 -11 -11
-10 -10 -10 -10 -10 -10 -10 -10 -10 -10 -10 -10 -10 -10 -10 -10 -10 -10 -10 -9 -10 -10 -10 -10 -10 -10 -10 -10 -10 -10 -10 -10 -10 -10 -10 -10 -10 -10 -11 -11 -11 -11 -11 -11

GFSNGP_700_temp_225.txt.gz
Temp
-8 -8 -7 -7 -7 -7 -8 -7 -7 -6 -5 1 2 2 2 1 2 3 4 4 4 5 5 6 6 7 7 8 8 8 8 8 8 7 7 6 6 5 5 3 2 3 2 2
-8 -8 -8 -7 -7 -7 -7 -7 -7 -6 -5 -1 -1 -2 -1 -0 0 1 2 2 4 5 5 6 6 6 6 7 7 8 7 7 6 6 5 5 5 5 5 5 2 1 2 0
-9 -8 -9 -8 -6 -6 -6 -6 -5 -6 -4 -1 -2 -2 -2 -1 -1 -0 1 2 2 4 4 5 5 5 6 6 6 7 7 7 7 6 6 5 5 4 4 4 2 1 1 0
-9 -9 -9 -7 -6 -6 -6 -5 -4 -4 -3 -2 -2 -2 -2 -2 -2 -1 -1 1 2 2 3 5 6 5 5 5 5 6 6 6 6 6 5 5 5 4 4 3 2 0 -0 -0
-9 -9 -8 -8 -6 -6 -6 -5 -6 -6 -4 -3 -3 -4 -4 -1 -1 -1 -1 -1 1 2 3 4 4 5 5 5 5 5 5 6 6 5 5 4 4 4 3 2 1 1 -0 -1
-9 -10 -12 -6 -5 -6 -7 -8 -6 -6 -5 -5 -4 -5 -3 -1 -1 -1 -1 -1 -1 1 3 3 4 4 3 4 5 5 6 6 6 5 4 4 4 3 2 1 0 -0 -0 -1
-9 -9 -8 -7 -7 -7 -8 -5 -5 -6 -6 -6 -6 -6 -4 -2 -1 -0 -1 -1 -1 0 2 3 3 4 4 4 5 5 5 5 5 5 4 3 3 2 2 1 0 -0 -1 -2
-10 -9 -9 -7 -7 -8 -6 -6 -6 -6 -6 -6 -5 -5 -4 -3 -2 -0 -1 -1 -1 -0 1 3 3 3 4 5 5 4 5 5 5 4 4 3 3 2 2 -0 -1 -1 -1 -2
-9 -8 -7 -7 -7 -7 -7 -7 -7 -7 -6 -6 -6 -4 -4 -4 -5 -2 -2 -2 -1 -1 -0 1 3 3 4 4 4 4 4 4 4 4 3 2 2 1 -0 -1 -1 -2 -4 -4
-9 -7 -7 -7 -7 -7 -7 -7 -6 -7 -7 -7 -7 -5 -5 -4 -4 -4 -4 -3 -1 -0 -1 1 2 2 3 3 4 4 3 3 3 3 2 2 1 -0 -1 -1 -2 -5 -6 -7
-9 -8 -8 -7 -7 -7 -8 -7 -7 -7 -7 -7 -7 -7 -7 -5 -4 -4 -4 -4 -2 -1 -1 0 1 2 2 2 3 3 3 3 3 2 2 1 -0 -1 -2 -4 -6 -6 -7 -7
-9 -8 -9 -9 -7 -8 -7 -7 -7 -7 -7 -7 -6 -7 -6 -6 -4 -4 -4 -5 -2 -1 -1 0 1 1 1 2 2 2 2 2 2 2 -0 -0 -1 -2 -5 -8 -8 -7 -6 -7
-8 -8 -9 -8 -7 -7 -7 -7 -7 -7 -7 -7 -6 -6 -6 -6 -4 -4 -4 -4 -2 -1 -2 -0 0 0 0 0 0 1 1 1 0 -0 -0 -1 -2 -4 -6 -5 -6 -7 -7 -7
-7 -7 -7 -7 -7 -7 -7 -7 -7 -7 -7 -7 -6 -6 -6 -6 -3 -4 -3 -3 -3 -2 -2 -2 -1 -1 -1 -0 -1 -1 -1 -1 -1 -2 -2 -2 -5 -5 -5 -6 -7 -7 -8 -9
-8 -8 -8 -7 -7 -8 -7 -7 -7 -7 -6 -6 -5 -6 -6 -6 -4 -3 -3 -3 -2 -2 -2 -2 -2 -1 -2 -2 -1 -1 -2 -3 -2 -3 -5 -5 -5 -6 -7 -7 -8 -8 -9 -8
-6 -7 -7 -8 -7 -7 -7 -8 -7 -7 -6 -6 -6 -5 -5 -5 -4 -4 -2 -2 -2 -3 -2 -2 -2 -2 -3 -3 -3 -3 -3 -5 -6 -6 -5 -6 -6 -7 -7 -8 -9 -9 -8 -8
-6 -6 -7 -7 -7 -7 -7 -7 -7 -6 -6 -6 -6 -6 -5 -5 -5 -4 -4 -3 -3 -3 -3 -2 -2 -3 -4 -4 -4 -5 -6 -6 -6 -6 -7 -7 -7 -8 -8 -9 -8 -8 -8 -8
-7 -6 -6 -7 -7 -7 -6 -6 -6 -6 -6 -6 -6 -6 -6 -6 -6 -5 -5 -4 -4 -4 -4 -3 -4 -5 -5 -6 -7 -6 -7 -7 -7 -7 -8 -7 -8 -8 -8 -8 -8 -8 -9 -9
-7 -6 -6 -7 -7 -7 -7 -6 -7 -6 -6 -6 -6 -6 -7 -7 -7 -7 -6 -6 -6 -6 -6 -6 -7 -7 -7 -7 -7 -7 -8 -8 -8 -7 -7 -8 -8 -8 -9 -9 -9 -9 -9 -9
-7 -7 -7 -8 -7 -7 -7 -6 -7 -7 -6 -7 -7 -7 -7 -7 -7 -7 -7 -7 -7 -8 -8 -8 -8 -8 -8 -8 -8 -8 -8 -8 -7 -7 -8 -8 -9 -9 -9 -9 -9 -9 -9 -10
-7 -7 -8 -9 -8 -7 -7 -7 -7 -7 -7 -7 -7 -8 -9 -8 -8 -8 -7 -7 -8 -8 -8 -10 -10 -9 -9 -9 -8 -8 -8 -8 -8 -8 -8 -9 -9 -9 -9 -9 -9 -10 -10 -10
-8 -8 -8 -8 -8 -8 -7 -7 -7 -7 -7 -8 -8 -8 -9 -8 -8 -8 -8 -8 -8 -8 -9 -9 -9 -9 -9 -9 -9 -8 -9 -8 -8 -8 -9 -9 -9 -9 -9 -10 -9 -9 -10 -10
-8 -8 -9 -9 -8 -8 -8 -7 -7 -7 -7 -7 -8 -8 -9 -8 -8 -8 -8 -9 -9 -9 -9 -9 -9 -9 -9 -9 -8 -8 -8 -8 -8 -8 -8 -9 -9 -9 -9 -10 -10 -10 -10 -10
-9 -9 -9 -9 -9 -8 -8 -8 -8 -8 -8 -9 -8 -9 -9 -8 -8 -9 -9 -9 -9 -9 -9 -9 -9 -9 -9 -9 -9 -9 -8 -8 -8 -9 -9 -9 -9 -10 -10 -10 -10 -10 -10 -10
-10 -9 -9 -9 -9 -9 -9 -9 -9 -10 -10 -9 -9 -9 -9 -9 -9 -9 -9 -9 -9 -9 -9 -9 -9 -9 -9 -9 -9 -9 -9 -9 -9 -9 -9 -10 -10 -10 -10 -10 -10 -10 -10 -11
-10 -10 -10 -10 -10 -10 -10 -10 -10 -10 -10 -10 -10 -10 -10 -10 -10 -10 -10 -10 -9 -9 -9 -9 -9 -9 -9 -9 -9 -9 -9 -9 -9 -9 -9 -10 -10 -10 -11 -10 -10 -10 -11 -11
-10 -10 -10 -10 -10 -10 -10 -10 -10 -10 -10 -10 -10 -11 -11 -10 -10 -11 -10 -10 -9 -9 -9 -9 -10 -10 -10 -10 -10 -10 -9 -9 -9 -9 -10 -10 -10 -10 -10 -10 -11 -11 -11 -11

GFSNGP_700_temp_228.txt.gz
Temp
-8 -8 -7 -8 -8 -8 -8 -8 -8 -6 -6 -0 1 1 -1 -1 -0 -0 1 2 3 3 4 4 5 5 5 6 7 7 8 9 9 8 8 6 6 6 5 5 5 5 5 3
-9 -8 -8 -8 -8 -7 -7 -8 -8 -7 -6 -1 -0 -2 -1 -1 -1 -1 0 2 2 3 3 4 4 4 5 5 6 7 8 8 8 8 6 6 5 5 5 5 5 5 5 3
-9 -9 -9 -9 -6 -6 -6 -6 -5 -6 -4 -2 -2 -3 -2 -2 -2 -2 -1 -0 1 2 2 3 4 5 5 5 5 6 7 7 7 7 6 5 4 5 5 5 4 4 4 4
-10 -10 -10 -7 -6 -6 -6 -5 -5 -6 -5 -3 -3 -3 -3 -3 -2 -2 -2 -1 -0 1 2 3 3 4 5 5 5 5 6 6 6 6 5 5 5 5 5 4 4 4 4 4
-10 -10 -8 -7 -7 -6 -7 -6 -6 -6 -6 -5 -4 -4 -5 -3 -3 -3 -3 -2 -1 -0 1 2 3 4 3 4 5 5 5 6 6 5 5 5 5 5 4 4 4 3 3 2
-10 -11 -13 -7 -7 -7 -7 -8 -4 -5 -5 -5 -5 -6 -3 -2 -3 -3 -3 -3 -2 -1 -1 1 3 3 4 4 3 4 5 5 5 5 5 5 5 4 4 3 3 3 2 1
-10 -10 -9 -8 -7 -8 -8 -5 -5 -6 -5 -5 -6 -6 -5 -4 -4 -4 -3 -3 -2 -2 -1 -1 1 3 3 4 4 4 4 4 4 5 5 5 4 3 3 3 3 2 1 0
-10 -10 -9 -7 -7 -8 -6 -6 -6 -6 -7 -7 -6 -6 -6 -4 -5 -5 -4 -3 -3 -2 -1 -1 -0 1 3 4 4 4 4 4 4 4 4 4 4 3 3 3 2 1 -0 -1
-9 -8 -7 -8 -8 -8 -8 -9 -8 -8 -8 -7 -7 -6 -6 -5 -4 -5 -4 -4 -4 -3 -3 -1 -1 0 2 3 3 4 4 4 4 4 4 4 3 3 3 2 1 -0 -1 -1
-10 -8 -7 -8 -8 -9 -8 -9 -9 -9 -8 -8 -8 -7 -5 -6 -5 -5 -5 -5 -4 -4 -3 -2 -1 0 1 2 2 3 4 4 3 3 3 4 3 3 2 2 1 -0 -1 -2
-10 -8 -8 -8 -8 -9 -9 -9 -9 -8 -8 -8 -8 -7 -7 -6 -6 -6 -5 -5 -6 -5 -3 -3 -1 -0 1 2 2 3 3 3 4 3 3 3 3 3 1 -0 -1 -1 -2 -3
-9 -8 -8 -8 -8 -8 -9 -9 -8 -8 -8 -7 -8 -7 -7 -6 -6 -6 -6 -5 -5 -5 -4 -2 -2 -1 1 1 2 2 2 2 2 2 3 2 2 2 -1 -1 -1 -2 -3 -4
-9 -9 -9 -7 -8 -8 -8 -8 -8 -7 -7 -7 -7 -7 -7 -7 -6 -6 -6 -6 -5 -5 -4 -3 -3 -2 0 1 1 1 1 1 2 1 1 1 1 -1 -1 -1 -1 -2 -6 -7
-8 -9 -8 -7 -8 -8 -8 -8 -8 -8 -7 -7 -7 -7 -6 -6 -6 -6 -6 -5 -5 -5 -4 -3 -3 -2 0 1 1 1 0 1 1 -1 -1 -1 -1 -1 -1 -1 -2 -5 -6 -6
-8 -8 -8 -8 -7 -7 -8 -8 -8 -7 -7 -7 -7 -6 -6 -6 -6 -6 -6 -5 -5 -4 -3 -3 -3 -2 -1 -2 -1 -1 -1 0 0 -0 -1 -2 -2 -2 -2 -4 -5 -6 -6 -7
-6 -7 -7 -7 -7 -7 -7 -7 -7 -7 -7 -6 -6 -6 -6 -6 -5 -6 -5 -5 -4 -4 -4 -3 -3 -2 -2 -2 -2 -2 -2 -2 -2 -3 -3 -3 -3 -4 -6 -5 -6 -7 -7 -8
-7 -6 -6 -6 -6 -6 -7 -7 -7 -7 -7 -7 -6 -6 -6 -6 -6 -6 -5 -5 -4 -3 -3 -4 -3 -3 -3 -2 -2 -3 -3 -3 -3 -5 -5 -6 -6 -6 -6 -7 -7 -7 -8 -9
-7 -7 -7 -7 -7 -6 -7 -7 -7 -6 -7 -7 -6 -7 -7 -7 -7 -6 -6 -6 -5 -5 -4 -4 -3 -3 -4 -4 -4 -4 -4 -5 -6 -6 -6 -6 -7 -7 -7 -8 -8 -9 -9 -9
-7 -7 -7 -7 -7 -7 -7 -7 -7 -7 -7 -7 -7 -7 -7 -8 -8 -7 -7 -5 -5 -4 -4 -5 -6 -6 -7 -7 -6 -6 -7 -7 -7 -7 -7 -7 -7 -7 -8 -8 -8 -8 -9 -9
-8 -8 -7 -8 -8 -8 -8 -7 -7 -7 -7 -7 -7 -7 -7 -8 -8 -8 -8 -7 -7 -7 -7 -8 -8 -8 -8 -8 -8 -7 -7 -7 -7 -7 -8 -8 -8 -8 -8 -8 -9 -9 -9 -9
-8 -8 -8 -9 -9 -8 -7 -7 -7 -7 -8 -7 -8 -8 -8 -8 -8 -8 -9 -9 -9 -9 -9 -9 -9 -8 -8 -8 -8 -8 -9 -9 -8 -8 -8 -8 -9 -9 -9 -9 -9 -9 -9 -10
-8 -8 -8 -8 -8 -8 -8 -7 -7 -7 -8 -8 -9 -10 -9 -9 -9 -9 -9 -9 -9 -9 -9 -9 -9 -9 -9 -9 -9 -9 -9 -9 -9 -9 -9 -9 -9 -9 -9 -9 -9 -9 -10 -10
-9 -9 -9 -9 -8 -8 -8 -8 -7 -8 -8 -9 -9 -8 -8 -8 -9 -9 -9 -9 -10 -10 -10 -9 -9 -9 -8 -9 -9 -9 -9 -9 -9 -9 -9 -9 -9 -9 -9 -10 -10 -10 -10 -10
-9 -9 -9 -9 -9 -9 -8 -8 -8 -8 -8 -8 -9 -9 -8 -8 -9 -9 -10 -10 -10 -10 -10 -9 -9 -9 -9 -9 -9 -9 -9 -9 -9 -9 -9 -9 -9 -10 -10 -10 -10 -10 -10 -10
-10 -10 -10 -10 -10 -10 -10 -9 -9 -9 -9 -9 -9 -9 -9 -9 -9 -9 -9 -10 -10 -10 -9 -9 -9 -9 -9 -9 -9 -9 -9 -9 -9 -9 -9 -9 -9 -10 -10 -10 -10 -10 -10 -10
-10 -10 -10 -10 -10 -10 -10 -10 -10 -10 -10 -10 -10 -10 -10 -10 -10 -10 -9 -9 -9 -9 -9 -9 -9 -9 -10 -9 -9 -9 -8 -8 -9 -9 -9 -9 -9 -10 -10 -10 -10 -11 -11 -11
-10 -11 -11 -10 -10 -10 -10 -10 -10 -10 -10 -10 -10 -10 -10 -10 -10 -11 -11 -10 -10 -10 -10 -10 -10 -10 -10 -10 -9 -9 -9 -9 -9 -9 -9 -9 -10 -10 -10 -11 -11 -11 -11 -11